Torna al catalogo

STARLINK-2675

AttivoComunicazioniVLEO
NORAD 48470·PAYLOAD·🇺🇸 United States

Lanciato May 9, 2021 da Cape Canaveral Space Force Station

Loading…

Prossimi Passaggi (prossime 24 ore)

TLE

AggiornatoSource: CelesTrak SupGP

Epoca: Sep 15, 2026, 01:24 UTC

1 48470C 21040AU  26258.05881944 -.00022565  00000+0 -72537-3 0  2588
2 48470  53.1602  29.7612 0001049  91.0542 340.6537 15.31725797    10

Traccia STARLINK-2675 in tempo reale con AllMySat

Download on the App Store